ネオワイズ彗星

C/2020 P1 ( NEOWISE )

English version
Home page
Updated on October 10, 2020

---------------------------------------------------------------------

・ プロフィール

発見日 2020年8月2日
発見光度 19等
発見者 Near-Earth Object Wide-field Infrared Survey Explorer

・ 写真集

・ 軌道要素

Epoch 2020 Nov. 7.0 TT = JDT 2459160.5
T 2020 Oct. 20.17704 TT                                 Rudenko
q   0.3420541            (2000.0)            P               Q
z  -0.0018330      Peri.    8.88736     +0.49927451     -0.65304323
 +/-0.0002479      Node    53.54649     +0.74508112     -0.01185250
e   1.0006270      Incl.   45.06897     +0.44224325     +0.75722787
From 105 observations 2020 Aug. 2-Sept. 20, mean residual 1".1.

・ 星図

・ 光度変化

        m1 = 14.0 + 5 logΔ + 10.0 log r

---------------------------------------------------------------------

軌道要素はM.P.E.C. 2020-S188に掲載されたものです。
星図はステラナビゲータ Ver.10 (アストロアーツ) で作成したものです。
光度グラフはComet for Windowsで作成したものです。

---------------------------------------------------------------------

Copyright(C) Seiichi Yoshida (comet@aerith.net). All rights reserved.